Location: Archemont
(49.1579°N, 1.7598°E)
Time: 15:08:38
(UTC+00:00)

Cosmos 2322 Rocket - Pass Details

Date: 03 February 2023
Orbit: 831 x 852 km, 71.0° (Epoch: 29 March)

Event Time Altitude Azimuth Distance (km) Brightness Sun altitude
Rises 18:15:09 0° 199° (SSW) 3,362 5.7 -13.7°
Reaches altitude 10° 18:17:34 10° 197° (SSW) 2,433 4.9 -14.1°
Maximum altitude 18:23:07 71° 114° (ESE) 882 2.1 -15.0°
Drops below altitude 10° 18:28:42 10° 32° (NNE) 2,453 4.3 -15.9°
Enters shadow 18:28:53 - 32° (NNE) 2,524 4.3 -15.9°
